Location: Plainartige
(45.6866°N, 1.7993°E)
Time: 02:41:25
(UTC+00:00)

RS-15 - Visible Passes

Search period start: 28 June 2022 00:00
Search period end: 08 July 2022 00:00
Orbit: 1881 x 2163 km, 64.8° (Epoch: 27 June)

Date Brightness Start Highest point End Pass type
(mag) Time Alt. Az. Time Alt. Az. Time Alt. Az.
28 Jun 8.6 01:35:23 10° NW 01:46:16 40° WSW 01:53:54 19° SSW visible
28 Jun 9.5 20:31:43 10° NW 20:42:32 33° NNE 20:53:14 10° ENE visible
28 Jun 8.5 22:45:56 10° NW 22:58:15 61° NE 23:10:07 10° ESE visible
29 Jun 8.3 00:59:00 10° NW 01:10:35 51° WSW 01:18:11 23° S visible
29 Jun 8.8 22:09:43 10° NW 22:21:48 52° NE 22:33:29 10° ESE visible
30 Jun 8.2 00:22:45 10° NW 00:34:49 63° WSW 00:42:36 25° S visible
30 Jun 9.4 02:38:45 10° WNW 02:44:31 15° W 02:50:13 10° WSW visible
30 Jun 9.0 21:33:26 10° NW 21:45:12 45° NNE 21:56:41 10° ESE visible
30 Jun 8.1 23:46:33 10° NW 23:58:54 78° WSW 00:07:07 25° SSE visible
01 Jul 9.1 02:01:05 10° NW 02:09:14 21° W 02:14:48 15° SW visible
01 Jul 9.2 20:57:03 10° NW 21:08:30 40° NNE 21:19:42 10° E visible
01 Jul 8.1 23:10:23 10° NW 23:22:52 88° ENE 23:31:42 22° SE visible
02 Jul 8.9 01:24:09 10° NW 01:33:49 29° WSW 01:39:24 20° SW visible
02 Jul 9.3 20:20:34 10° NW 20:31:40 36° NNE 20:42:37 10° E visible
02 Jul 8.3 22:34:14 10° NW 22:46:42 74° NE 22:56:22 19° SE visible
03 Jul 8.7 00:47:33 10° NW 00:58:18 38° WSW 01:04:04 25° SSW visible
03 Jul 8.5 21:58:04 10° NW 22:10:24 63° NE 22:21:06 14° ESE visible
04 Jul 8.4 00:11:09 10° NW 00:22:39 49° WSW 00:28:48 28° SSW visible
04 Jul 8.7 21:21:51 10° NW 21:33:58 53° NE 21:45:42 10° ESE visible
04 Jul 8.2 23:34:53 10° NW 23:46:53 61° WSW 23:53:36 30° S visible
05 Jul 9.4 01:51:13 10° WNW 01:56:30 14° W 02:01:19 11° WSW visible
05 Jul 8.9 20:45:35 10° NW 20:57:24 46° NNE 21:08:53 10° ESE visible
05 Jul 8.1 22:58:40 10° NW 23:11:00 75° WSW 23:18:26 28° SSE visible
06 Jul 9.2 01:13:22 10° NW 01:21:14 20° W 01:26:09 16° SW visible
06 Jul 9.1 20:09:13 10° NW 20:20:43 40° NNE 20:31:57 10° E visible
06 Jul 8.1 22:22:31 10° NW 22:34:59 90° ESE 22:43:20 25° SSE visible
07 Jul 9.0 00:36:22 10° NW 00:45:51 28° W 00:51:03 20° SW visible
07 Jul 8.2 21:46:22 10° NW 21:58:50 76° NE 22:08:15 20° SE visible
